www.pogodaiklimat.ru
ПОГОДА на Керинчи
Время
(UTC), дата
21 15.11
00 16.11
03 16.11
06 16.11
09 16.11
12 16.11
15 16.11
00 17.11
03 17.11
06 17.11
09 17.11
12 17.11
15 17.11
18 17.11
21 17.11
00 18.11
03 18.11
06 18.11
09 18.11
12 18.11
15 18.11
18 18.11
21 18.11
00 19.11
03 19.11
06 19.11
09 19.11
12 19.11
15 19.11
18 19.11
21 19.11
00 20.11
03 20.11
06 20.11
09 20.11
12 20.11
15 20.11
18 20.11
00 21.11
03 21.11
06 21.11
09 21.11
12 21.11
15 21.11
18 21.11
21 21.11
00 22.11
03 22.11
06 22.11
09 22.11
12 22.11
Ветер
(напр.,м/с)
Видим. Явления Облачность Т
(С)
Тd
(С)
f
(%)
Тe
(С)
Тes
(С)
Комфортность P
(гПа)
Po
(гПа)
Тmin
(С)
Tmax
(С)
R
(мм)
R24
(мм)
S
(см)
штиль 0 5000 м 8/5 450 м
[Sc Ac trans Ci fib]
+21.0 +19.8 93 +26 +26 душно 1013.6 923.0
штиль 0 8000 м 5/1 360 м
[Sc Ac trans Ci fib]
+20.3 +19.3 94 +24 +25 комфорт 1014.8 924.2 +20.0 0.3
Ю 3 10 км 3/1 450 м
[Cu hum Ac trans Ci fib]
+26.7 +19.0 63 +32 +42 очень
душно
1015.7 924.9
ЮВ 6 10 км 5/4 450 м
[Cu hum Ac trans Ci fib]
+29.3 +17.3 48 +33 +37 душно 1013.6 923.1
ЮВ 3 10 км 6/4 480 м
[Cu med, cong Ac trans Ci fib]
+28.2 +17.2 51 +32 +35 душно 1012.0 921.5
В 1 6000 м 8/4 500 м
[Sc Ac trans Ci fib]
+23.8 +18.5 72 +28 +28 душно 1014.1 923.5 +30.2
СВ 2 6000 м 8/4 450 м
[Sc Ac trans Ci fib]
+23.5 +18.6 74 +28 +28 душно 1013.6 923.0
штиль 0 6000 м 6/5 450 м
[Sc Ac trans Ci fib]
+18.0 +16.3 90 +18 +19 тепло 1015.4 924.6 +17.8
ЮВ 4 6000 м 5/3 450 м
[Cu hum Ac trans Ci fib]
+25.9 +19.8 69 +32 +37 очень
душно
1016.1 925.3
В 7 7000 м 6/4 420 м
[Cu med, cong Ac trans Ci fib]
+27.5 +14.6 45 +30 +32 жарко 1014.0 923.3
ЮВ 3 7000 м 8/4 420 м
[Cu med, cong Ac trans Ci fib]
+26.9 +17.2 55 +31 +33 душно 1012.7 921.0
ЮВ 2 5000 м 8/4 420 м
[Sc Ac trans Ci fib]
+25.1 +17.1 61 +29 +29 душно 1013.6 923.6 +28.1
штиль 0 4000 м 6/3 630 м
[Sc Ac trans Ci fib]
+20.2 +17.8 86 +23 +23 комфорт 1015.4 924.6
штиль 0 3000 м 8/4 600 м
[Sc Ac trans Ci fib]
+18.8 +17.6 93 +20 +20 тепло 1014.4 923.7
штиль 0 3000 м 8/4 570 м
[Sc Ac trans Ci fib]
+18.6 +17.4 93 +20 +20 тепло 1014.2 923.6
штиль 0 4000 м слаб. дождь 10/8 450 м
[Sc Ac trans Ci fib]
+19.0 +17.8 93 +20 +21 тепло 1016.1 925.3 +18.2
Ю 2 3000 м мгла 5/3 450 м
[Cu hum Ac trans Ci fib]
+25.0 +19.5 72 +30 +39 душно 1015.8 925.1 0.0
ЮВ 4 6000 м 6/3 480 м
[Cu hum Ac trans Ci fib]
+28.6 +17.7 52 +33 +41 очень
душно
1012.7 922.2
ЮВ 6 7000 м 5/3 500 м
[Cu med, cong Ac trans Ci fib]
+28.4 +17.3 51 +32 +34 душно 1010.6 920.2
СВ 1 5000 м 9/5 400 м
[Cu med, cong Ac trans Ci fib]
+24.4 +19.6 75 +30 +30 очень
душно
1013.6 923.0 +29.8
штиль 0 4000 м 8/5 420 м
[Sc Ac trans Ci fib]
+22.8 +19.3 81 +29 +29 очень
душно
1014.7 924.0
штиль 0 4000 м 8/5 420 м
[Sc Ac trans Ci fib]
+21.3 +19.1 87 +26 +26 душно 1014.3 924.1
штиль 0 4000 м 9/5 400 м
[Sc Ac trans Ci fib]
+19.9 +18.7 93 +23 +23 комфорт 1014.9 924.6
штиль 0 6000 м 6/1 420 м
[Cu hum Ac trans Ci fib]
+20.7 +19.2 91 +25 +25 комфорт 1014.5 923.8 +18.2 0.0
В 1 8000 м 6/4 450 м
[Cu hum Ac trans Ci fib]
+26.8 +19.4 64 +32 +41 очень
душно
1015.0 924.3
ЮВ 4 8000 м слаб. дождь 9/5 450 м
[Cu hum Ac lent Ci fib]
+26.0 +21.2 75 +33 +37 очень
душно
1012.6 922.0
СВ 2 4000 м слаб. дождь 10/5
[Cb cap As op Ci sp]
+25.6 +21.2 77 +32 +34 очень
душно
1011.2 920.9 6
ЮВ 1 4000 м гроза без осадков 10/5 420 м
[Cb cap As op Ci sp]
+23.0 +21.4 91 +31 +31 очень
душно
1013.1 922.6 +29.0 5
штиль 0 4000 м осадки на расстоянии 10/6 330 м
[Cb calv Ac trans Ci fib]
+21.4 +20.2 93 +27 +27 душно 1014.9 924.1 2
ЮВ 2 3000 м в посл. час дождь 10/6 300 м
[Cb cap Ac As Ci fib]
+21.1 +20.4 96 +26 +26 душно 1013.3 922.7 3
В 1 5000 м 9/5 400 м
[Cu med, cong Ac trans Ci fib]
+20.8 +19.9 95 +27 +27 душно 1013.1 922.4
С 1 8000 м 5/3 400 м
[Cu hum Ac trans Ci fib]
+20.8 +19.2 91 +26 +27 душно 1014.1 923.5 +18.1 14
ЮВ 2 8000 м 9/4 420 м
[Cu med, cong Ac cuf Ci fib]
+25.7 +20.2 72 +32 +37 очень
душно
1015.0 924.3
СВ 5 2000 м дождь 9/5 400 м
[Sc Ac cuf Ci fib]
+23.3 +21.0 87 +31 +34 очень
душно
1012.2 921.8 3
ЮВ 1 3000 м осадки на расстоянии 10/5
[Cb cap As op Ci sp]
+26.6 +20.9 71 +33 +35 очень
душно
1010.7 920.4 4
З 2 2000 м слаб. дождь 10/5
[Cb cap As op Ci sp]
+21.4 +20.4 94 +27 +27 душно 1013.6 923.1 +29.2 21
ЮВ 1 3000 м 10/5 420 м
[Sc Ac As Ci sp]
+21.1 +20.4 96 +26 +26 душно 1015.3 924.6 2
штиль 0 4000 м в посл. час дождь 10/5 420 м
[Sc Ac As Ci sp]
+20.9 +20.0 95 +25 +25 комфорт 1014.4 923.8 0.8
штиль 0 4000 м мгла 8/6 360 м
[Sc Ac trans Ci fib]
+20.6 +19.4 93 +25 +25 комфорт 1014.0 923.4 +20.5 31
В 1 10 км 4/3 450 м
[Cu hum Ac trans Ci fib]
+25.6 +21.2 77 +32 +43 очень
душно
1014.7 924.0
С 3 5000 м в посл. час дождь 8/6 450 м
[Cu med, cong Ac trans Ci fib]
+27.3 +21.7 72 +35 +40 очень
душно
1011.9 921.5 0.0
ЮЗ 4 3000 м гроза, ливневой дождь 10/6
[Cb cap As op]
+24.5 +21.4 83 +31 +31 очень
душно
1011.3 921.0 0.2
З 1 3000 м в посл. час дождь 10/5 420 м
[Sc Ac As Ci sp]
+22.0 +21.1 95 +28 +28 душно 1014.6 923.9 +29.7 11
штиль 0 2000 м в посл. час дождь 10/5 400 м
[Cb cap Ac trans Ci fib]
+21.4 +20.2 93 +27 +27 душно 1015.7 925.0 1
штиль 0 2000 м 10/5 450 м
[Sc Ac trans Ci fib]
+20.6 +19.9 96 +25 +25 комфорт 1014.9 924.1
штиль 0 3000 м 9/5 450 м
[Sc Ac trans Ci fib]
+20.2 +19.3 95 +24 +24 комфорт 1013.8 923.2
С 2 5000 м мгла 9/6 420 м
[Sc Ac trans Ci fib]
+20.5 +19.8 96 +25 +26 комфорт 1015.6 924.9 +20.2 13
В 2 9000 м 5/4 450 м
[Cu hum Ac trans Ci fib]
+25.6 +20.1 72 +32 +39 очень
душно
1016.2 925.4
Ю 4 10 км 5/4 450 м
[Cu hum Ac trans Ci fib]
+29.0 +19.2 55 +34 +42 очень
душно
1012.9 922.4
ЮВ 2 10 км 5/3 540 м
[Cu med, cong Ac trans Ci fib]
+28.8 +19.2 56 +34 +38 очень
душно
1012.2 920.4
В 3 6000 м 10/5 400 м
[Cb calv Ac trans Ci fib]
+24.4 +20.7 80 +30 +30 очень
душно
1014.0 923.3 +30.3
Местоположение метеостанции Керинчи (Индонезия): широта -2.77 долгота 101.36 высота над уровнем моря 782 м.
В архиве по умолчанию представлена погода на Керинчи за последнюю неделю. Архивные данные за месяц целиком и за предыдущие месяцы, начиная с января 2011 года, Вы можете получить, выбрав интересующий диапазон дат из раскрывающегося списка и нажав кнопку "Найти!".
*Определитесь, кто Вы:
Внимание! Время в таблицах - всемирное. Для получения местного времени необходимо прибавить поправку, которая равна 7 ч.
Смотрите также архив погоды в соседних городах и на ближайших метеорологических станциях:
Партнеры нашего сайта:      
Пояснения к столбцам:
  • Ветер - указаны скорость ветра в м/с - средняя за 10 мин, порывы в срок и между сроками (в фигурных скобках) и направление, откуда дует ветер: С - северный,
  • СВ - северо-восточный, В - восточный, ЮВ - юго-восточный, Ю - южный, ЮЗ - юго-западный, З - западный, СЗ - северо-западный.
  • Видимость - горизонтальная дальность видимости в метрах или километрах. При видимости от 1 до 10 км при отсутствии осадков обычно наблюдается дымка, при ухудшении видимости до 1 км и менее - туман. В сухую погоду видимость может ухудшаться дымом, пылью или мглою.
  • Явления - указаны атмосферные явления, наблюдавшиеся в срок или в последний час перед сроком; фигурными скобками обозначены явления, наблюдавшиеся между сроками (за 1-3 часа до срока); квадратными скобками обозначены град или гололедные отложения с указанием их диаметра в мм.
  • Облачность - указаны через наклонную черту общая и нижняя облачность в баллах и высота нижней границы облаков в метрах; квадратными скобками обозначены формы облаков: Ci - перистые, Cs - перисто-слоистые, Cc - перисто-кучевые, Ac - высококучевые, As - высокослоистые, Sc - слоисто-кучевые, Ns - слоисто-дождевые, Cu - кучевые, Cb - кучево-дождевые. Подробнее классификацию облаков см. в Атласе облаков (PDF).
  • T - Температура воздуха - температура, измеренная на высоте 2 м над землей.
  • Td - Температура точки росы - температура, при понижении до которой содержащийся в воздухе водяной пар достигнет насыщения.
  • f - Относительная влажность воздуха - влажноcть воздуха, измеренная на высоте 2 м над землей.
  • Te - Эффективная температура - температура, которую ощущает одетый по сезону человек в тени. Характеристика душности погоды. При расчете учитывается влияние влажности воздуха и скорости ветра на теплоощущения человека.
  • Tes - Эффективная температура на солнце - температура, которую ощущает человек, с поправкой на солнечный нагрев. Характеристика знойности погоды. Зависит от высоты солнца над горизонтом, облачности и скорости ветра. Ночью, в пасмурную погоду, а также при ветре 12 м/с и более поправка равна нулю.
  • P - Атмосферное давление - приведенное к уровню моря атмосферное давление.
  • Po - Атмосферное давление - измеренное на уровне метеостанции атмосферное давление.
  • Tmin - Минимальная температура - минимум температуры воздуха на высоте 2 м над землей.
  • Tmax - Максимальная температура - максимум температуры воздуха на высоте 2 м над землей.
  • R - Количество осадков - Количество выпавших осадков за период времени, мм. При наведении курсора мыши на число - период времени, за который выпало указанное количество осадков.
  • R24 - Количество осадков - Количество выпавших осадков за 24 часа, мм.
  • S - Снежный покров - Высота снежного покрова, см. При наведении курсора мыши на число - состояние снежного покрова и степень покрытия местности в баллах.